Location: Orange Harbor Mobile Home Park
(26.6923°N, 81.7937°W)
Time: 08:22:51
(UTC+00:00)

Meteor 1-31 Rocket - Pass Details

Date: 19 September 2020
Orbit: 521 x 546 km, 97.6° (Epoch: 29 October)

Event Time Altitude Azimuth Distance (km) Brightness Sun altitude
Rises 10:27:48 0° 1° (N) 2,660 6.4 -11.3°
Reaches altitude 10° 10:29:59 10° 354° (N) 1,772 5.4 -10.8°
Maximum altitude 10:33:34 39° 285° (WNW) 797 3.2 -10.0°
Drops below altitude 10° 10:37:09 10° 215° (SW) 1,776 5.0 -9.2°
Sets 10:39:21 0° 207° (SSW) 2,667 6.0 -8.7°
